[[{"header":{"parameterUnit":"m.s-1","parameterCategory":1,"la1":30.2991,"la2":30.254,"lo1":-89.0895,"lo2":-89.0444,"dy":0.0017,"dx":0.0017,"nx":28,"ny":28,"refTime":"2025-07-07T21:00:00:Z","depth":0,"parameterNumber":2,"parameterNumberName":"U-component_of_WINDS"},"data":[0,0,0,0,0,0,0,0,0,0,0,0,0,0,0,0,0,0,0,0,0,0,0,0,0,0,0,0,0,0,0,0,0,0,0,0,0,0,0,0,0,0,0,0,0,0,0,0,0,0,0,0,0,0,0,0,0,0,2.7198,2.7198,0,2.7243,2.7244,2.7244,2.7167,2.7164,2.7162,2.7159,2.7213,2.7217,2.7221,0,0,0,0,0,0,0,0,0,0,0,0,0,2.7046,2.705,2.7197,2.7198,2.7199,2.7243,2.7244,2.7245,2.7168,2.7164,2.7161,2.7158,2.7212,2.7217,2.7221,0,0,0,0,0,0,0,0,0,0,0,0,0,2.7104,2.7051,2.7197,2.7165,2.7163,2.7243,2.7244,2.7245,2.7168,2.7164,2.716,2.7156,2.721,2.7216,2.7222,2.7338,0,0,2.724,2.7242,0,0,0,0,0,0,0,0,2.7101,2.711,2.7169,2.7168,2.7165,2.7195,2.721,2.7276,2.7169,2.7166,2.7159,2.7155,2.7211,2.7217,2.7234,2.734,2.7343,2.724,2.7244,2.7246,2.7248,0,0,0,0,0,0,0,2.7097,2.7108,2.7216,2.717,2.7168,2.715,2.7154,2.7222,2.7211,2.7166,2.7161,2.7167,2.7209,2.7229,2.7235,2.7343,2.724,2.7245,2.7249,2.7251,2.7542,2.7546,0,0,0,0,0,0,2.7097,2.7105,2.7214,2.7217,2.7122,2.7156,2.716,2.719,2.721,2.7209,2.717,2.7163,2.7221,2.7228,2.7236,2.737,2.7246,2.7252,2.7255,2.7538,2.7543,2.7548,0,0,0,0,0,0,2.7094,2.7107,2.7212,2.7159,2.7171,2.7162,2.7197,2.7193,2.7212,2.7212,2.7211,2.7192,2.7218,2.7228,2.7311,2.7371,2.7255,2.726,2.7533,2.754,2.7545,2.764,0,0,0,0,0,0,2.709,2.7106,2.715,2.7161,2.7175,2.7286,2.72,2.7197,2.7222,2.7213,2.7233,2.7232,2.7215,2.7303,2.7317,2.7377,2.7264,2.7528,2.7536,2.7543,2.7632,2.7649,2.7664,0,0,0,0,0,2.7084,2.7177,2.7153,2.7166,2.7228,2.729,2.7298,2.7275,2.7227,2.727,2.727,2.7231,2.7362,2.7312,2.7328,2.739,2.7524,2.7534,2.7543,2.7625,2.7646,2.7663,0,0,0,0,0,0,2.7177,2.7178,2.7151,2.725,2.727,2.7277,2.7331,2.7298,2.7335,2.7325,2.7297,2.7302,2.7391,2.7399,2.7343,2.7501,2.7435,2.7448,2.7492,2.7512,2.7528,2.7524,2.7269,0,0,0,0,0,2.7209,2.7257,2.7256,2.7343,2.7354,2.7341,2.7367,2.7347,2.7368,2.7377,2.7382,2.7406,2.7451,2.7482,2.7525,2.7632,2.7634,2.7683,2.7699,2.7712,2.7723,2.7777,2.7798,2.7579,2.7579,2.7578,0,0,2.7276,2.7282,2.7315,2.7362,2.7375,2.7426,2.7349,2.7408,2.7445,2.7386,2.7463,2.7469,2.7492,2.7587,2.763,2.7597,2.7784,2.7724,2.7734,2.7739,2.7789,2.781,2.7828,2.7585,2.7584,2.7583,0,0,2.7422,2.7433,2.7504,2.7518,2.7537,2.7527,2.7544,2.7555,2.7554,2.7631,2.7587,2.7632,2.7712,2.7729,2.7749,2.7897,2.7862,2.7912,2.7996,2.8048,2.8066,2.8081,2.8131,2.815,2.7923,2.7924,2.7924,0,2.7503,2.7576,2.7546,2.7606,2.7627,2.7572,2.7644,2.766,2.7694,2.771,2.7672,2.7768,2.7781,2.7877,2.7912,2.7931,2.7949,2.791,2.8065,2.808,2.8094,2.8141,2.8161,2.7929,2.7929,2.7928,2.7928,0,2.7673,2.7725,2.7781,2.7809,2.7837,2.7904,2.7883,2.7915,2.7892,2.7886,2.7963,2.7975,2.8017,2.8039,2.8019,2.8131,2.811,2.8069,2.8003,2.8121,2.8165,2.8183,2.7938,2.7936,2.7934,2.7932,0,0,2.7883,2.789,2.7911,2.7922,2.7937,2.7977,2.8039,2.8077,2.8103,2.8128,2.8179,2.8246,2.8206,2.8228,2.8209,2.8256,2.8368,2.8209,2.8209,2.8236,2.849,2.852,2.8541,2.8345,2.8349,2.8351,2.8487,0,2.8026,2.8131,2.8103,2.8208,2.8254,2.82,2.8255,2.827,2.8265,2.8304,2.8299,2.8346,2.8292,2.8304,2.8348,2.8346,2.8419,2.8336,2.8392,2.8395,2.8386,2.8565,2.8597,2.8725,2.8505,2.8508,2.851,0,2.8208,2.8234,2.8342,2.8345,2.8364,2.8413,2.8443,2.8481,2.8496,2.8489,2.8511,2.8481,2.8543,2.8475,2.8559,2.8502,2.8524,2.8526,2.853,2.8534,2.8459,2.8572,2.8766,2.8784,2.8538,2.8535,2.8533,0,2.8346,2.8409,2.8481,2.8492,2.8499,2.8534,2.8538,2.855,2.8573,2.86,2.8614,2.8649,2.8669,2.8696,2.8677,2.863,2.8763,2.8694,2.8758,2.8758,2.8788,2.8787,2.8987,2.8805,2.8805,2.8804,2.8804,0,2.8509,2.8577,2.8542,2.8587,2.866,2.8628,2.8702,2.8701,2.8711,2.8753,2.8711,2.8753,2.8724,2.8764,2.8749,2.8818,2.8828,2.8824,2.8819,2.8827,2.8827,2.884,2.8831,2.8809,2.8808,2.8807,2.8806,0,2.8676,2.8656,2.873,2.8728,2.8729,2.8783,2.8782,2.8823,2.8813,2.8867,2.8879,2.8864,2.8907,2.889,2.8938,2.8927,2.9016,2.9,2.9009,2.9005,2.9069,2.9062,2.9283,2.931,2.9112,2.9114,2.9116,0,2.8781,2.8831,2.8832,2.8856,2.8863,2.8903,2.8924,2.8894,2.8919,2.8937,2.8976,2.9014,2.9044,2.9116,2.911,2.9145,2.9129,2.9204,2.9135,2.914,2.9128,2.9124,2.9128,2.9218,2.9221,2.9222,2.9224,0,2.8967,2.8953,2.8985,2.9012,2.9038,2.9059,2.9077,2.9099,2.9069,2.9099,2.914,2.9163,2.9208,2.9247,2.9277,2.9283,2.9249,2.9245,2.9262,2.927,2.9272,2.9269,2.9046,2.9241,2.9239,2.9238,2.9237,2.9236,2.9105,2.9145,2.9151,2.9187,2.9195,2.9211,2.9248,2.9241,2.9274,2.9306,2.9287,2.9335,2.9346,2.9382,2.9392,2.943,2.9401,2.9425,2.9431,2.9437,2.9444,2.9266,2.9436,2.9435,2.9435,2.9435,2.9434,0,2.9287,2.9287,2.932,2.9343,2.9371,2.9332,2.9348,2.9374,2.9416,2.9428,2.9456,2.9502,2.9539,2.9534,2.9567,2.9598,2.9583,2.9608,2.9605,2.9606,2.947,2.9451,2.9619,2.9619,2.9619,2.9619,2.9619,2.9619,2.9385,2.945,2.9436,2.9504,2.9504,2.9548,2.956,2.9575,2.9583,2.9636,2.9664,2.966,2.9665,2.9697,2.9728,2.9725,2.9739,2.9769,2.9761,2.9634,2.9616,2.9598,2.9581,2.9773,2.9773,2.9894,2.9895,2.9896]},{"header":{"parameterUnit":"m.s-1","parameterCategory":1,"la1":30.2991,"la2":30.254,"lo1":-89.0895,"lo2":-89.0444,"dy":0.0017,"dx":0.0017,"nx":28,"ny":28,"refTime":"2025-07-07T21:00:00:Z","depth":0,"parameterNumber":3,"parameterNumberName":"V-component_of_WINDS"},"data":[0,0,0,0,0,0,0,0,0,0,0,0,0,0,0,0,0,0,0,0,0,0,0,0,0,0,0,0,0,0,0,0,0,0,0,0,0,0,0,0,0,0,0,0,0,0,0,0,0,0,0,0,0,0,0,0,0,0,5.7393,5.7393,0,5.7347,5.7347,5.7346,5.7254,5.7253,5.7251,5.7249,5.7204,5.7205,5.7205,0,0,0,0,0,0,0,0,0,0,0,0,0,5.7405,5.7406,5.7393,5.7393,5.7392,5.7347,5.7347,5.7346,5.7255,5.7252,5.725,5.7248,5.7204,5.7205,5.7206,0,0,0,0,0,0,0,0,0,0,0,0,0,5.7384,5.7406,5.7393,5.7341,5.7336,5.7347,5.7347,5.7346,5.7255,5.7252,5.725,5.7247,5.7204,5.7205,5.7206,5.7265,0,0,5.7208,5.7208,0,0,0,0,0,0,0,0,5.7385,5.7384,5.7349,5.7345,5.7339,5.7304,5.7334,5.7319,5.7256,5.7286,5.7249,5.7246,5.724,5.7238,5.7235,5.7263,5.7261,5.7208,5.7209,5.7209,5.7209,0,0,0,0,0,0,0,5.7387,5.7385,5.7375,5.7349,5.7343,5.7321,5.7315,5.7331,5.7279,5.7283,5.7276,5.7272,5.7237,5.7234,5.7233,5.726,5.7208,5.7209,5.7209,5.7209,5.7335,5.7337,0,0,0,0,0,0,5.7396,5.7387,5.7376,5.7374,5.7356,5.7323,5.7316,5.7318,5.7278,5.727,5.7274,5.7268,5.7234,5.7232,5.7231,5.7297,5.7209,5.721,5.721,5.7332,5.7335,5.7338,0,0,0,0,0,0,5.7396,5.7395,5.7378,5.7378,5.7375,5.7326,5.7328,5.7318,5.7316,5.7272,5.7262,5.7281,5.7232,5.723,5.7257,5.7294,5.721,5.7211,5.7329,5.7333,5.7337,5.743,0,0,0,0,0,0,5.7397,5.7396,5.7417,5.738,5.7375,5.7404,5.7331,5.7319,5.7317,5.7308,5.7276,5.7268,5.723,5.7256,5.7258,5.7294,5.7211,5.7325,5.7331,5.7336,5.7423,5.7436,5.7448,0,0,0,0,0,5.7398,5.7446,5.7419,5.7418,5.74,5.7406,5.7404,5.7358,5.7321,5.7342,5.7314,5.7269,5.7291,5.726,5.7261,5.7297,5.7322,5.7329,5.7335,5.7417,5.7434,5.7448,0,0,0,0,0,0,5.7489,5.744,5.7409,5.7446,5.7431,5.7391,5.7415,5.7377,5.7373,5.7365,5.7309,5.7303,5.7337,5.732,5.7287,5.7353,5.7299,5.7306,5.7362,5.7377,5.7389,5.7391,5.7212,0,0,0,0,0,5.7514,5.7522,5.7479,5.7516,5.751,5.7465,5.7466,5.7432,5.7414,5.7408,5.7381,5.7367,5.737,5.7373,5.7374,5.7422,5.7413,5.7447,5.746,5.7471,5.7476,5.7499,5.7514,5.736,5.736,5.736,0,0,5.7565,5.7539,5.7547,5.7534,5.7518,5.7528,5.746,5.7474,5.7481,5.741,5.7432,5.7414,5.7394,5.7431,5.7446,5.7418,5.7518,5.7479,5.7488,5.7487,5.7508,5.7522,5.7535,5.7364,5.7363,5.7363,0,0,5.7661,5.7643,5.7671,5.7657,5.7634,5.7604,5.7612,5.7577,5.7561,5.7584,5.753,5.754,5.7547,5.7534,5.7529,5.7624,5.7583,5.7627,5.7691,5.7715,5.7727,5.7737,5.7769,5.7781,5.7633,5.7634,5.7634,0,5.7727,5.7739,5.7691,5.7708,5.7704,5.7641,5.7669,5.7658,5.7637,5.7636,5.7606,5.7613,5.7596,5.7629,5.7652,5.7651,5.7657,5.7628,5.7729,5.7739,5.7748,5.7778,5.779,5.7639,5.7638,5.7638,5.7637,0,5.782,5.783,5.7856,5.7836,5.7836,5.7859,5.7815,5.782,5.7788,5.7762,5.7786,5.7763,5.7758,5.7764,5.7733,5.7793,5.7776,5.7739,5.7683,5.7768,5.7795,5.7807,5.7646,5.7644,5.7643,5.7642,0,0,5.797,5.7925,5.7934,5.7925,5.7896,5.7903,5.7925,5.7919,5.7924,5.7913,5.7929,5.7937,5.7902,5.7897,5.7864,5.7885,5.796,5.7844,5.7843,5.7865,5.8024,5.805,5.8064,5.7934,5.7936,5.7938,5.8024,0,5.8057,5.8088,5.8047,5.8088,5.8096,5.8038,5.8056,5.8042,5.8019,5.8023,5.7999,5.8005,5.7959,5.7955,5.7974,5.7947,5.7991,5.7941,5.7948,5.7948,5.7951,5.8078,5.8106,5.8188,5.8035,5.8037,5.8038,0,5.8163,5.8156,5.8197,5.8166,5.8168,5.8185,5.8177,5.8183,5.8165,5.8147,5.8142,5.8104,5.8123,5.8073,5.8099,5.8065,5.8067,5.8055,5.8057,5.8053,5.7996,5.8075,5.8214,5.8225,5.8055,5.8053,5.8052,0,5.8264,5.8266,5.829,5.8284,5.825,5.8263,5.825,5.823,5.8229,5.8223,5.8222,5.822,5.8217,5.8216,5.8178,5.8145,5.8209,5.8155,5.8194,5.8195,5.8206,5.8205,5.8344,5.8213,5.8213,5.8213,5.8212,0,5.8364,5.8391,5.8335,5.835,5.8379,5.8333,5.8363,5.8344,5.8328,5.8338,5.829,5.8302,5.8252,5.8259,5.8231,5.8256,5.8256,5.8242,5.8233,5.8244,5.8245,5.8241,5.8233,5.8216,5.8215,5.8215,5.8214,0,5.848,5.8444,5.8467,5.8433,5.8425,5.8448,5.8419,5.8432,5.8408,5.8422,5.8423,5.8384,5.8389,5.8353,5.8352,5.8333,5.8371,5.8354,5.8376,5.8369,5.8409,5.8405,5.8547,5.8563,5.8425,5.8426,5.8428,0,5.8544,5.8564,5.8532,5.8536,5.8524,5.8531,5.853,5.8487,5.8488,5.8471,5.8487,5.8488,5.8486,5.8498,5.847,5.847,5.8451,5.8501,5.845,5.8461,5.8448,5.8446,5.8448,5.851,5.8512,5.8513,5.8515,0,5.8662,5.8643,5.8643,5.8638,5.8639,5.8633,5.8624,5.863,5.8583,5.8588,5.8592,5.8591,5.8591,5.8593,5.8587,5.8574,5.8536,5.8532,5.854,5.8549,5.856,5.8552,5.8401,5.8527,5.8526,5.8525,5.8524,5.8524,5.8751,5.8766,5.8746,5.8748,5.8737,5.873,5.874,5.8717,5.872,5.8715,5.8691,5.87,5.8684,5.8672,5.8664,5.8671,5.8647,5.8659,5.8662,5.8665,5.8671,5.8562,5.867,5.867,5.8669,5.8669,5.8669,0,5.8863,5.8849,5.8851,5.884,5.8843,5.8809,5.8797,5.8801,5.881,5.8798,5.8798,5.8804,5.8806,5.878,5.8779,5.879,5.8773,5.8791,5.8788,5.8785,5.8694,5.8685,5.8805,5.8805,5.8805,5.8805,5.8805,5.8804,5.8922,5.8944,5.8924,5.894,5.8926,5.8933,5.893,5.8924,5.8914,5.8922,5.8924,5.8907,5.8889,5.8887,5.8888,5.888,5.8881,5.8905,5.8891,5.8805,5.8792,5.8779,5.8771,5.8906,5.8906,5.8982,5.8982,5.8983]}]]